EN

Hourly Weather Dziekowizna

Today, 24 October, Saturday

Time Temperature Precipitation Wind Pressure Humidity
00:00 +13°C° 0.1 mm 2 mps 742 mmHg 87%
01:00 +12°C° 0.1 mm 3 mps 742 mmHg 85%
02:00 +12°C° 0.3 mm 3 mps 742 mmHg 86%
03:00 +12°C° 0.3 mm 4 mps 741 mmHg 87%
04:00 +11°C° 0.3 mm 4 mps 741 mmHg 89%
05:00 +12°C° 0.7 mm 4 mps 741 mmHg 91%
06:00 +12°C° 0.7 mm 4 mps 741 mmHg 92%
07:00 +12°C° 0.7 mm 4 mps 741 mmHg 94%
08:00 +13°C° 0 mm 4 mps 742 mmHg 88%
09:00 +13°C° 0 mm 4 mps 742 mmHg 81%
10:00 +14°C° 0 mm 4 mps 743 mmHg 75%
11:00 +14°C° 0 mm 4 mps 743 mmHg 73%
12:00 +15°C° 0 mm 4 mps 743 mmHg 70%
13:00 +15°C° 0 mm 4 mps 744 mmHg 68%
14:00 +14°C° 0 mm 3 mps 744 mmHg 71%
15:00 +13°C° 0 mm 3 mps 744 mmHg 75%
16:00 +14°C° 0 mm 2 mps 744 mmHg 79%
17:00 +13°C° 0 mm 2 mps 744 mmHg 82%
18:00 +13°C° 0 mm 2 mps 745 mmHg 85%
19:00 +12°C° 0 mm 2 mps 745 mmHg 87%
20:00 +12°C° 0 mm 2 mps 745 mmHg 89%
21:00 +12°C° 0 mm 2 mps 745 mmHg 91%
22:00 +10°C° 0 mm 2 mps 746 mmHg 93%
23:00 +10°C° 0 mm 2 mps 746 mmHg 93%

Tomorrow, 25 October, Sunday

Time Temperature Precipitation Wind Pressure Humidity
00:00 +10°C° 0 mm 2 mps 746 mmHg 93%
01:00 +10°C° 0 mm 2 mps 746 mmHg 94%
02:00 +9°C° 0 mm 2 mps 746 mmHg 94%
03:00 +9°C° 0 mm 2 mps 746 mmHg 94%
04:00 +9°C° 0 mm 2 mps 745 mmHg 94%
05:00 +9°C° 0 mm 2 mps 746 mmHg 94%
06:00 +9°C° 0 mm 2 mps 746 mmHg 94%
07:00 +9°C° 0 mm 2 mps 746 mmHg 94%
08:00 +10°C° 0 mm 2 mps 746 mmHg 88%
09:00 +13°C° 0 mm 2 mps 746 mmHg 82%
10:00 +14°C° 0 mm 2 mps 746 mmHg 76%
11:00 +15°C° 0 mm 2 mps 746 mmHg 72%
12:00 +16°C° 0 mm 2 mps 746 mmHg 68%
13:00 +17°C° 0 mm 2 mps 746 mmHg 64%
14:00 +16°C° 0 mm 3 mps 745 mmHg 69%
15:00 +14°C° 0 mm 3 mps 745 mmHg 74%
16:00 +13°C° 0 mm 3 mps 744 mmHg 79%
17:00 +12°C° 0 mm 3 mps 744 mmHg 81%
18:00 +12°C° 0 mm 4 mps 745 mmHg 82%
19:00 +12°C° 0 mm 4 mps 745 mmHg 84%
20:00 +11°C° 0 mm 4 mps 744 mmHg 83%
21:00 +11°C° 0 mm 4 mps 744 mmHg 82%
22:00 +11°C° 0 mm 4 mps 744 mmHg 81%
23:00 +10°C° 0 mm 4 mps 744 mmHg 82%

Day after tomorrow, 26 October, Monday

Time Temperature Precipitation Wind Pressure Humidity
00:00 +10°C° 0 mm 4 mps 743 mmHg 84%
01:00 +10°C° 0 mm 4 mps 743 mmHg 85%
02:00 +10°C° 0 mm 4 mps 743 mmHg 87%
03:00 +10°C° 0 mm 4 mps 742 mmHg 89%
04:00 +11°C° 0 mm 4 mps 742 mmHg 90%
05:00 +10°C° 0 mm 4 mps 742 mmHg 92%
06:00 +10°C° 0 mm 4 mps 742 mmHg 93%
07:00 +10°C° 0 mm 4 mps 742 mmHg 94%
08:00 +10°C° 0 mm 5 mps 742 mmHg 89%
09:00 +12°C° 0 mm 5 mps 741 mmHg 84%
10:00 +14°C° 0 mm 5 mps 741 mmHg 78%
11:00 +15°C° 0 mm 5 mps 741 mmHg 74%
12:00 +16°C° 0 mm 5 mps 741 mmHg 71%
13:00 +17°C° 0 mm 5 mps 741 mmHg 67%
14:00 +16°C° 0 mm 5 mps 741 mmHg 69%
15:00 +15°C° 0 mm 5 mps 741 mmHg 71%
16:00 +15°C° 0 mm 4 mps 740 mmHg 73%
17:00 +14°C° 0 mm 5 mps 740 mmHg 75%
18:00 +14°C° 0 mm 5 mps 741 mmHg 77%
19:00 +13°C° 0 mm 5 mps 741 mmHg 79%
20:00 +13°C° 0 mm 5 mps 741 mmHg 80%
21:00 +13°C° 0 mm 5 mps 741 mmHg 81%
22:00 +13°C° 0 mm 5 mps 741 mmHg 81%
23:00 +13°C° 0 mm 5 mps 741 mmHg 82%

, 27 October, Tuesday

Time Temperature Precipitation Wind Pressure Humidity
00:00 +13°C° 0 mm 4 mps 741 mmHg 82%
01:00 +13°C° 0 mm 4 mps 741 mmHg 83%
02:00 +13°C° 0 mm 4 mps 741 mmHg 84%
03:00 +13°C° 0 mm 3 mps 741 mmHg 84%
04:00 +13°C° 0 mm 3 mps 741 mmHg 85%
05:00 +13°C° 0 mm 3 mps 741 mmHg 85%
06:00 +13°C° 0 mm 3 mps 741 mmHg 85%
07:00 +13°C° 0 mm 3 mps 741 mmHg 85%
08:00 +14°C° 0 mm 4 mps 742 mmHg 80%
09:00 +15°C° 0 mm 4 mps 742 mmHg 76%
10:00 +15°C° 0 mm 4 mps 742 mmHg 71%
11:00 +17°C° 0 mm 4 mps 742 mmHg 68%
12:00 +17°C° 0 mm 5 mps 742 mmHg 65%
13:00 +19°C° 0 mm 5 mps 742 mmHg 62%
14:00 +18°C° 0 mm 4 mps 742 mmHg 66%
15:00 +17°C° 0 mm 4 mps 742 mmHg 69%
16:00 +15°C° 0 mm 4 mps 742 mmHg 73%
17:00 +15°C° 0 mm 4 mps 742 mmHg 74%
18:00 +14°C° 0 mm 4 mps 742 mmHg 75%
19:00 +14°C° 0 mm 4 mps 742 mmHg 76%
20:00 +13°C° 0 mm 4 mps 742 mmHg 77%
21:00 +13°C° 0 mm 4 mps 743 mmHg 78%
22:00 +13°C° 0 mm 4 mps 743 mmHg 79%
23:00 +12°C° 0 mm 4 mps 743 mmHg 82%

27 October, Tuesday

Time Temperature Precipitation Wind Pressure Humidity
00:00 +13°C° 0 mm 4 mps 741 mmHg 82%
01:00 +13°C° 0 mm 4 mps 741 mmHg 83%
02:00 +13°C° 0 mm 4 mps 741 mmHg 84%
03:00 +13°C° 0 mm 3 mps 741 mmHg 84%
04:00 +13°C° 0 mm 3 mps 741 mmHg 85%
05:00 +13°C° 0 mm 3 mps 741 mmHg 85%
06:00 +13°C° 0 mm 3 mps 741 mmHg 85%
07:00 +13°C° 0 mm 3 mps 741 mmHg 85%
08:00 +14°C° 0 mm 4 mps 742 mmHg 80%
09:00 +15°C° 0 mm 4 mps 742 mmHg 76%
10:00 +15°C° 0 mm 4 mps 742 mmHg 71%
11:00 +17°C° 0 mm 4 mps 742 mmHg 68%
12:00 +17°C° 0 mm 5 mps 742 mmHg 65%
13:00 +19°C° 0 mm 5 mps 742 mmHg 62%
14:00 +18°C° 0 mm 4 mps 742 mmHg 66%
15:00 +17°C° 0 mm 4 mps 742 mmHg 69%
16:00 +15°C° 0 mm 4 mps 742 mmHg 73%
17:00 +15°C° 0 mm 4 mps 742 mmHg 74%
18:00 +14°C° 0 mm 4 mps 742 mmHg 75%
19:00 +14°C° 0 mm 4 mps 742 mmHg 76%
20:00 +13°C° 0 mm 4 mps 742 mmHg 77%
21:00 +13°C° 0 mm 4 mps 743 mmHg 78%
22:00 +13°C° 0 mm 4 mps 743 mmHg 79%
23:00 +12°C° 0 mm 4 mps 743 mmHg 82%

28 October, Wednesday

Time Temperature Precipitation Wind Pressure Humidity
00:00 +12°C° 0 mm 3 mps 743 mmHg 85%
01:00 +12°C° 0 mm 2 mps 743 mmHg 88%
02:00 +12°C° 0 mm 2 mps 743 mmHg 90%
03:00 +10°C° 0 mm 2 mps 744 mmHg 91%
04:00 +10°C° 0 mm 2 mps 744 mmHg 93%
05:00 +11°C° 0 mm 1 mps 744 mmHg 94%
06:00 +11°C° 0 mm 1 mps 744 mmHg 94%
07:00 +11°C° 0 mm 1 mps 745 mmHg 94%
08:00 +11°C° 0 mm 1 mps 745 mmHg 90%
09:00 +12°C° 0 mm 1 mps 745 mmHg 85%
10:00 +13°C° 0 mm 1 mps 745 mmHg 80%
11:00 +14°C° 0 mm 1 mps 745 mmHg 76%
12:00 +15°C° 0 mm 2 mps 745 mmHg 72%
13:00 +15°C° 0 mm 2 mps 745 mmHg 68%
14:00 +15°C° 0 mm 2 mps 745 mmHg 71%
15:00 +14°C° 0 mm 2 mps 745 mmHg 75%
16:00 +14°C° 0 mm 1 mps 745 mmHg 78%
17:00 +14°C° 0 mm 1 mps 745 mmHg 79%
18:00 +13°C° 0 mm 2 mps 745 mmHg 79%
19:00 +13°C° 0 mm 2 mps 745 mmHg 80%
20:00 +13°C° 0 mm 2 mps 745 mmHg 82%
21:00 +13°C° 0 mm 2 mps 745 mmHg 84%
22:00 +12°C° 0 mm 3 mps 745 mmHg 86%
23:00 +11°C° 0 mm 3 mps 745 mmHg 87%

29 October, Thursday

Time Temperature Precipitation Wind Pressure Humidity
00:00 +12°C° 0 mm 2 mps 745 mmHg 89%
01:00 +12°C° 0 mm 2 mps 745 mmHg 90%
02:00 +10°C° 0 mm 2 mps 745 mmHg 90%
03:00 +10°C° 0 mm 2 mps 745 mmHg 90%
04:00 +9°C° 0 mm 2 mps 745 mmHg 90%
05:00 +9°C° 0 mm 2 mps 745 mmHg 88%
06:00 +9°C° 0 mm 2 mps 745 mmHg 86%
07:00 +9°C° 0 mm 2 mps 745 mmHg 84%
08:00 +10°C° 0 mm 3 mps 746 mmHg 78%
09:00 +11°C° 0 mm 3 mps 746 mmHg 71%
10:00 +13°C° 0 mm 4 mps 746 mmHg 65%
11:00 +13°C° 0 mm 4 mps 746 mmHg 62%
12:00 +14°C° 0 mm 5 mps 746 mmHg 59%
13:00 +15°C° 0 mm 5 mps 746 mmHg 57%
14:00 +14°C° 0 mm 4 mps 746 mmHg 60%
15:00 +14°C° 0 mm 4 mps 746 mmHg 64%
16:00 +13°C° 0 mm 3 mps 746 mmHg 67%
17:00 +12°C° 0.1 mm 3 mps 747 mmHg 70%
18:00 +12°C° 0.1 mm 3 mps 747 mmHg 72%
19:00 +11°C° 0.1 mm 3 mps 747 mmHg 75%
20:00 +11°C° 0 mm 3 mps 748 mmHg 77%
21:00 +10°C° 0 mm 3 mps 748 mmHg 80%
22:00 +9°C° 0 mm 2 mps 748 mmHg 82%
23:00 +9°C° 0 mm 3 mps 748 mmHg 83%
Show more